Location: Waco, TX
(31.5480°N, 97.1670°W)
Time: 15:48:08
(UTC-06:00)

N. Korean satellite - Visible Passes

Search period start: 25 February 2018 00:00
Search period end: 07 March 2018 00:00
Orbit: 459 x 514 km, 97.2° (Epoch: 24 February)

Date Brightness Start Highest point End Pass type
(mag) Time Alt. Az. Time Alt. Az. Time Alt. Az.
25 Feb 9.9 19:19:13 10° SW 19:21:25 16° W 19:23:37 10° NW visible
26 Feb 8.5 18:54:24 10° SSW 18:57:34 34° W 19:00:47 10° NNW visible
27 Feb 9.5 06:26:24 10° NE 06:29:30 25° E 06:32:36 10° SSE visible
28 Feb 10.5 06:04:09 10° ENE 06:05:38 12° E 06:07:08 10° ESE visible
01 Mar 9.9 19:17:31 10° SW 19:19:50 17° W 19:22:10 10° NW visible
02 Mar 8.4 18:52:45 10° SSW 18:55:58 36° W 18:59:15 10° NNW visible
03 Mar 9.6 06:24:52 10° NE 06:27:57 24° E 06:31:01 10° SSE visible
04 Mar 10.5 06:02:44 10° ENE 06:04:05 12° E 06:05:25 10° ESE visible
05 Mar 9.8 19:15:46 10° SW 19:18:12 18° W 19:20:40 10° NW visible
06 Mar 8.3 18:51:04 10° SSW 18:54:20 38° W 18:57:41 10° NNW visible
